| time (UTC) | temp F | wind direction | speed knots | gust knots | rain 1hr in | rain 24hr in | rain mn in | humidity % | barometer mb |
| 20260906173011 | 82 | 204 | 1.7 | 2.6 | 0.00 | 0.00 | 0.00 | 59 | 1019.5 |
| 20260906172505 | 82 | 213 | 1.7 | 2.6 | 0.00 | 0.00 | 0.00 | 60 | 1019.9 |
| 20260906172000 | 81 | 285 | 0.9 | 4.3 | 0.00 | 0.00 | 0.00 | 58 | 1019.9 |
| 20260906171455 | 81 | 321 | 1.7 | 3.5 | 0.00 | 0.00 | 0.00 | 57 | 1020.0 |
| 20260906170950 | 82 | 99 | 0.0 | 2.6 | 0.00 | 0.00 | 0.00 | 58 | 1019.8 |
| 20260906170446 | 80 | 245 | 1.7 | 3.5 | 0.00 | 0.00 | 0.00 | 57 | 1020.0 |
| 20260906165943 | 81 | 157 | 0.0 | 3.5 | 0.00 | 0.00 | 0.00 | 58 | 1020.2 |
| 20260906165442 | 81 | 30 | 0.9 | 4.3 | 0.00 | 0.00 | 0.00 | 60 | 1020.2 |
| 20260906164938 | 80 | 128 | 0.0 | 1.7 | 0.00 | 0.00 | 0.00 | 61 | 1020.1 |
| 20260906164436 | 80 | 269 | 0.0 | 5.2 | 0.00 | 0.00 | 0.00 | 63 | 1020.0 |
| 20260906163933 | 80 | 155 | 0.9 | 2.6 | 0.00 | 0.00 | 0.00 | 64 | 1020.1 |
| 20260906163428 | 79 | 88 | 0.0 | 2.6 | 0.00 | 0.00 | 0.00 | 67 | 1020.4 |
| 20260906162927 | 79 | 217 | 1.7 | 3.5 | 0.00 | 0.00 | 0.00 | 67 | 1020.2 |
| 20260906162425 | 78 | 215 | 1.7 | 3.5 | 0.00 | 0.00 | 0.00 | 70 | 1020.5 |
| 20260906161921 | 78 | 187 | 0.0 | 2.6 | 0.00 | 0.00 | 0.00 | 70 | 1020.4 |
| 20260906161420 | 78 | 349 | 0.0 | 2.6 | 0.00 | 0.00 | 0.00 | 71 | 1020.2 |
| 20260906160919 | 78 | 342 | 0.0 | 2.6 | 0.00 | 0.00 | 0.00 | 73 | 1020.2 |
| 20260906160413 | 78 | 219 | 2.6 | 2.6 | 0.00 | 0.00 | 0.00 | 72 | 1020.6 |
| 20260906155911 | 78 | 324 | 2.6 | 3.5 | 0.00 | 0.00 | 0.00 | 72 | 1020.4 |
| 20260906155405 | 78 | 354 | 0.0 | 2.6 | 0.00 | 0.00 | 0.00 | 74 | 1020.5 |
| 20260906154901 | 77 | 136 | 1.7 | 2.6 | 0.00 | 0.00 | 0.00 | 77 | 1020.5 |
| 20260906154355 | 76 | 309 | 0.0 | 2.6 | 0.00 | 0.00 | 0.00 | 79 | 1020.5 |
| 20260906153854 | 76 | 121 | 1.7 | 4.3 | 0.00 | 0.00 | 0.00 | 77 | 1020.4 |
| 20260906153353 | 76 | 343 | 0.0 | 4.3 | 0.00 | 0.00 | 0.00 | 80 | 1020.2 |
| 20260906152849 | 75 | 345 | 0.9 | 2.6 | 0.00 | 0.00 | 0.00 | 79 | 1020.4 |
| 20260906152349 | 75 | 177 | 1.7 | 4.3 | 0.00 | 0.00 | 0.00 | 81 | 1020.5 |
| 20260906151848 | 75 | 357 | 0.0 | 6.1 | 0.00 | 0.00 | 0.00 | 81 | 1020.3 |
| 20260906151344 | 75 | 351 | 0.0 | 3.5 | 0.00 | 0.00 | 0.00 | 81 | 1020.5 |
| 20260906150840 | 76 | 195 | 0.9 | 2.6 | 0.00 | 0.00 | 0.00 | 82 | 1020.4 |
| 20260906150335 | 74 | 202 | 0.0 | 2.6 | 0.00 | 0.00 | 0.00 | 84 | 1020.4 |
| 20260906145834 | 74 | 112 | 0.0 | 2.6 | 0.00 | 0.00 | 0.00 | 84 | 1020.3 |
| 20260906145333 | 74 | 109 | 0.0 | 1.7 | 0.00 | 0.00 | 0.00 | 84 | 1020.4 |
| 20260906144828 | 74 | 265 | 0.9 | 2.6 | 0.00 | 0.00 | 0.00 | 85 | 1020.5 |
| 20260906144323 | 73 | 179 | 0.0 | 1.7 | 0.00 | 0.00 | 0.00 | 85 | 1020.4 |
| 20260906143822 | 72 | 164 | 1.7 | 2.6 | 0.00 | 0.00 | 0.00 | 87 | 1020.4 |
| 20260906143319 | 72 | 208 | 0.0 | 2.6 | 0.00 | 0.00 | 0.00 | 89 | 1020.3 |
| 20260906142814 | 70 | 131 | 0.9 | 3.5 | 0.00 | 0.00 | 0.00 | 90 | 1020.4 |
| 20260906142309 | 70 | 355 | 0.0 | 1.7 | 0.00 | 0.00 | 0.00 | 92 | 1020.1 |
| 20260906141809 | 70 | 248 | 0.0 | 2.6 | 0.00 | 0.00 | 0.00 | 93 | 1019.9 |
| 20260906141304 | 68 | 195 | 0.0 | 1.7 | 0.00 | 0.00 | 0.00 | 98 | 1020.1 |
| 20260906140802 | 67 | 317 | 1.7 | 2.6 | 0.00 | 0.00 | 0.00 | 99 | 1020.1 |
| 20260906140257 | 67 | 217 | 0.0 | 1.7 | 0.00 | 0.00 | 0.00 | 99 | 1020.4 |
| 20260906135755 | 67 | 278 | 0.9 | 1.7 | 0.00 | 0.00 | 0.00 | 99 | 1020.2 |
| 20260906135250 | 66 | 141 | 0.0 | 1.7 | 0.00 | 0.00 | 0.00 | 99 | 1020.3 |
| 20260906134746 | 66 | 309 | 1.7 | 2.6 | 0.00 | 0.00 | 0.00 | 99 | 1020.5 |
| 20260906134241 | 65 | 271 | 0.9 | 2.6 | 0.00 | 0.00 | 0.00 | 99 | 1020.5 |
| 20260906133736 | 65 | 310 | 0.0 | 1.7 | 0.00 | 0.00 | 0.00 | 99 | 1020.3 |
| 20260906133231 | 65 | 104 | 1.7 | 3.5 | 0.00 | 0.00 | 0.00 | 99 | 1020.2 |
| 20260906132727 | 65 | 255 | 0.0 | 0.9 | 0.00 | 0.00 | 0.00 | 99 | 1020.2 |
| 20260906132222 | 65 | 201 | 0.9 | 1.7 | 0.00 | 0.00 | 0.00 | 99 | 1020.1 |
| 20260906131717 | 65 | 269 | 0.0 | 1.7 | 0.00 | 0.00 | 0.00 | 99 | 1019.7 |
| 20260906131207 | 65 | 326 | 0.0 | 0.9 | 0.00 | 0.00 | 0.00 | 99 | 1019.9 |
| 20260906130702 | 65 | 307 | 0.9 | 0.9 | 0.00 | 0.00 | 0.00 | 99 | 1019.6 |
| 20260906130157 | 64 | 275 | 0.0 | 1.7 | 0.00 | 0.00 | 0.00 | 99 | 1019.8 |
| 20260906125655 | 64 | 212 | 0.0 | 0.9 | 0.00 | 0.00 | 0.00 | 99 | 1019.6 |
| 20260906125154 | 64 | 209 | 0.0 | 0.9 | 0.00 | 0.00 | 0.00 | 99 | 1019.6 |
| 20260906124649 | 64 | 164 | 0.0 | 0.9 | 0.00 | 0.00 | 0.00 | 99 | 1019.8 |
| 20260906124144 | 64 | 322 | 0.0 | 0.9 | 0.00 | 0.00 | 0.00 | 99 | 1019.5 |
| 20260906123643 | 64 | 212 | 0.0 | 0.9 | 0.00 | 0.00 | 0.00 | 99 | 1019.5 |
| 20260906123139 | 64 | 333 | 0.0 | 1.7 | 0.00 | 0.00 | 0.00 | 99 | 1019.6 |
| 20260906122638 | 63 | 312 | 0.0 | 0.9 | 0.00 | 0.00 | 0.00 | 99 | 1019.4 |
| 20260906122133 | 63 | 242 | 0.0 | 0.9 | 0.00 | 0.00 | 0.00 | 99 | 1019.5 |
| 20260906121630 | 63 | 205 | 0.0 | 0.9 | 0.00 | 0.00 | 0.00 | 99 | 1019.4 |
| 20260906121126 | 63 | 221 | 0.0 | 0.9 | 0.00 | 0.00 | 0.00 | 99 | 1019.6 |
| 20260906120621 | 62 | 235 | 0.0 | 1.7 | 0.00 | 0.00 | 0.00 | 99 | 1019.5 |
| 20260906120119 | 62 | 128 | 0.0 | 0.9 | 0.00 | 0.00 | 0.00 | 99 | 1019.6 |
| 20260906115618 | 62 | 322 | 0.0 | 0.0 | 0.00 | 0.00 | 0.00 | 99 | 1019.5 |
| 20260906115114 | 62 | 297 | 0.0 | 0.9 | 0.00 | 0.00 | 0.00 | 99 | 1019.4 |
| 20260906114608 | 62 | 297 | 0.9 | 0.9 | 0.00 | 0.00 | 0.00 | 99 | 1019.4 |
| 20260906114103 | 62 | 207 | 0.0 | 1.7 | 0.00 | 0.00 | 0.00 | 99 | 1019.4 |
| 20260906113603 | 62 | 235 | 0.9 | 1.7 | 0.00 | 0.00 | 0.00 | 99 | 1019.4 |
| 20260906113057 | 62 | 164 | 0.0 | 0.0 | 0.00 | 0.00 | 0.00 | 99 | 1019.3 |
| 20260906112552 | 62 | 164 | 0.0 | 0.0 | 0.00 | 0.00 | 0.00 | 99 | 1019.1 |
| 20260906112048 | 62 | 164 | 0.0 | 0.9 | 0.00 | 0.00 | 0.00 | 99 | 1019.1 |
| 20260906111548 | 62 | 230 | 0.0 | 0.0 | 0.00 | 0.00 | 0.00 | 99 | 1019.1 |
| 20260906111043 | 62 | 230 | 0.0 | 0.0 | 0.00 | 0.00 | 0.00 | 99 | 1019.3 |
| 20260906110543 | 62 | 142 | 0.0 | 0.9 | 0.00 | 0.00 | 0.00 | 99 | 1019.1 |
| 20260906110042 | 62 | 142 | 0.0 | 0.0 | 0.00 | 0.00 | 0.00 | 99 | 1019.3 |
| 20260906105537 | 62 | 124 | 0.0 | 0.9 | 0.00 | 0.00 | 0.00 | 99 | 1019.3 |
| 20260906105033 | 62 | 333 | 0.0 | 0.9 | 0.00 | 0.00 | 0.00 | 99 | 1019.3 |
| 20260906104532 | 62 | 230 | 0.0 | 0.9 | 0.00 | 0.00 | 0.00 | 99 | 1019.2 |
| 20260906104026 | 62 | 309 | 0.0 | 1.7 | 0.00 | 0.00 | 0.00 | 99 | 1019.2 |
| 20260906103525 | 62 | 246 | 0.0 | 0.9 | 0.00 | 0.00 | 0.00 | 99 | 1019.1 |
| 20260906103020 | 62 | 225 | 0.0 | 0.9 | 0.00 | 0.00 | 0.00 | 99 | 1018.9 |
| 20260906102520 | 62 | 202 | 0.0 | 0.9 | 0.00 | 0.00 | 0.00 | 99 | 1018.9 |
| 20260906102015 | 62 | 197 | 0.0 | 1.7 | 0.00 | 0.00 | 0.00 | 99 | 1018.6 |
| 20260906101509 | 62 | 333 | 0.0 | 0.9 | 0.00 | 0.00 | 0.00 | 99 | 1018.7 |
| 20260906101004 | 62 | 130 | 0.0 | 0.9 | 0.00 | 0.00 | 0.00 | 99 | 1018.7 |
| 20260906100500 | 62 | 297 | 0.0 | 0.9 | 0.00 | 0.00 | 0.00 | 99 | 1018.6 |
| 20260906095954 | 62 | 38 | 0.0 | 0.9 | 0.00 | 0.00 | 0.00 | 99 | 1018.8 |
| 20260906095449 | 62 | 150 | 0.0 | 0.9 | 0.00 | 0.00 | 0.00 | 99 | 1018.7 |
| 20260906094944 | 62 | 154 | 0.0 | 0.9 | 0.00 | 0.00 | 0.00 | 99 | 1018.6 |
| 20260906094438 | 62 | 242 | 0.0 | 0.9 | 0.00 | 0.00 | 0.00 | 99 | 1018.6 |
| 20260906093934 | 62 | 212 | 0.0 | 0.9 | 0.00 | 0.00 | 0.00 | 99 | 1018.5 |
| 20260906093430 | 62 | 218 | 0.0 | 1.7 | 0.00 | 0.00 | 0.00 | 99 | 1018.5 |
| 20260906092930 | 63 | 202 | 0.0 | 0.9 | 0.00 | 0.00 | 0.00 | 99 | 1018.6 |
| 20260906092430 | 63 | 242 | 0.0 | 0.0 | 0.00 | 0.00 | 0.00 | 99 | 1018.6 |
| 20260906091925 | 63 | 230 | 0.0 | 0.9 | 0.00 | 0.00 | 0.00 | 99 | 1018.4 |
| 20260906091421 | 63 | 209 | 0.0 | 0.0 | 0.00 | 0.00 | 0.00 | 99 | 1018.3 |
| 20260906090917 | 63 | 210 | 0.0 | 0.9 | 0.00 | 0.00 | 0.00 | 99 | 1018.2 |
| 20260906090412 | 63 | 303 | 0.0 | 0.9 | 0.00 | 0.00 | 0.00 | 99 | 1018.1 |
| 20260906085907 | 63 | 322 | 0.0 | 0.9 | 0.00 | 0.00 | 0.00 | 99 | 1018.4 |
| 20260906085406 | 63 | 322 | 0.0 | 1.7 | 0.00 | 0.00 | 0.00 | 99 | 1018.1 |
| 20260906084905 | 63 | 205 | 0.0 | 0.0 | 0.00 | 0.00 | 0.00 | 99 | 1017.9 |
| 20260906084400 | 63 | 284 | 0.0 | 0.9 | 0.00 | 0.00 | 0.00 | 99 | 1018.2 |
| 20260906083854 | 63 | 246 | 0.0 | 0.0 | 0.00 | 0.00 | 0.00 | 99 | 1018.3 |
| 20260906083350 | 64 | 246 | 0.0 | 0.0 | 0.00 | 0.00 | 0.00 | 99 | 1018.3 |
| 20260906082849 | 64 | 229 | 0.0 | 0.9 | 0.00 | 0.00 | 0.00 | 99 | 1018.1 |
| 20260906082344 | 64 | 244 | 0.0 | 1.7 | 0.00 | 0.00 | 0.00 | 99 | 1018.6 |
| 20260906081841 | 64 | 217 | 0.0 | 0.0 | 0.00 | 0.00 | 0.00 | 99 | 1018.2 |
| 20260906081336 | 64 | 117 | 0.0 | 0.0 | 0.00 | 0.00 | 0.00 | 99 | 1018.2 |
| 20260906080832 | 64 | 117 | 0.0 | 0.9 | 0.00 | 0.00 | 0.00 | 99 | 1018.3 |
| 20260906080328 | 64 | 218 | 0.0 | 0.0 | 0.00 | 0.00 | 0.00 | 99 | 1018.5 |
| 20260906075822 | 64 | 218 | 0.0 | 0.0 | 0.00 | 0.00 | 0.00 | 99 | 1018.5 |
| 20260906075322 | 64 | 218 | 0.0 | 0.0 | 0.00 | 0.00 | 0.00 | 99 | 1018.4 |
| 20260906074817 | 64 | 218 | 0.0 | 0.0 | 0.00 | 0.00 | 0.00 | 99 | 1018.5 |
| 20260906074317 | 65 | 218 | 0.0 | 0.0 | 0.00 | 0.00 | 0.00 | 99 | 1018.5 |
| 20260906073816 | 65 | 218 | 0.0 | 0.0 | 0.00 | 0.00 | 0.00 | 99 | 1018.5 |
| 20260906073311 | 64 | 218 | 0.0 | 0.9 | 0.00 | 0.00 | 0.00 | 99 | 1018.4 |
| 20260906072807 | 64 | 242 | 0.0 | 0.0 | 0.00 | 0.00 | 0.00 | 99 | 1018.3 |
| 20260906072305 | 64 | 242 | 0.0 | 0.0 | 0.00 | 0.00 | 0.00 | 99 | 1018.7 |
| 20260906071758 | 64 | 242 | 0.0 | 0.0 | 0.00 | 0.00 | 0.00 | 99 | 1018.6 |
| 20260906071258 | 64 | 242 | 0.0 | 0.0 | 0.00 | 0.00 | 0.00 | 99 | 1018.5 |
| 20260906070755 | 64 | 230 | 0.0 | 0.9 | 0.00 | 0.00 | 0.00 | 99 | 1018.8 |
| 20260906070250 | 65 | 173 | 0.0 | 1.7 | 0.00 | 0.00 | 0.00 | 99 | 1018.8 |
| 20260906065750 | 64 | 224 | 0.0 | 0.0 | 0.00 | 0.00 | 0.00 | 99 | 1019.0 |
| 20260906065245 | 64 | 195 | 0.0 | 0.9 | 0.00 | 0.00 | 0.00 | 99 | 1019.0 |
| 20260906064741 | 64 | 333 | 0.0 | 0.0 | 0.00 | 0.00 | 0.00 | 99 | 1018.9 |
| 20260906064236 | 65 | 217 | 0.0 | 0.0 | 0.00 | 0.00 | 0.00 | 99 | 1018.9 |
| 20260906063731 | 65 | 129 | 0.0 | 0.0 | 0.00 | 0.00 | 0.00 | 99 | 1018.8 |
| 20260906063227 | 64 | 129 | 0.0 | 0.0 | 0.00 | 0.00 | 0.00 | 99 | 1018.7 |
| 20260906062722 | 65 | 129 | 0.0 | 0.0 | 0.00 | 0.00 | 0.00 | 99 | 1018.8 |
| 20260906062221 | 65 | 129 | 0.0 | 0.0 | 0.00 | 0.00 | 0.00 | 99 | 1018.9 |
| 20260906061717 | 65 | 129 | 0.0 | 0.0 | 0.00 | 0.00 | 0.00 | 99 | 1018.8 |
| 20260906061213 | 65 | 230 | 0.0 | 0.0 | 0.00 | 0.00 | 0.00 | 99 | 1019.0 |
| 20260906060709 | 65 | 230 | 0.0 | 0.9 | 0.00 | 0.00 | 0.00 | 99 | 1019.0 |
| 20260906060206 | 65 | 142 | 0.0 | 0.0 | 0.00 | 0.00 | 0.00 | 99 | 1018.9 |
| 20260906055701 | 65 | 205 | 0.0 | 0.0 | 0.00 | 0.00 | 0.00 | 99 | 1018.9 |
| 20260906055156 | 65 | 205 | 0.0 | 0.0 | 0.00 | 0.00 | 0.00 | 99 | 1018.9 |
| 20260906054652 | 65 | 205 | 0.0 | 0.0 | 0.00 | 0.00 | 0.00 | 99 | 1018.7 |
| 20260906054146 | 65 | 205 | 0.0 | 0.0 | 0.00 | 0.00 | 0.00 | 99 | 1018.9 |
| 20260906053643 | 65 | 205 | 0.0 | 0.0 | 0.00 | 0.00 | 0.00 | 99 | 1018.8 |
| 20260906053138 | 66 | 217 | 0.0 | 0.9 | 0.00 | 0.00 | 0.00 | 99 | 1018.9 |
| 20260906052633 | 65 | 195 | 0.0 | 0.0 | 0.00 | 0.00 | 0.00 | 99 | 1019.0 |
| 20260906052130 | 66 | 195 | 0.0 | 0.0 | 0.00 | 0.00 | 0.00 | 99 | 1018.7 |
| 20260906051626 | 65 | 195 | 0.0 | 0.0 | 0.00 | 0.00 | 0.00 | 99 | 1018.8 |
| 20260906051126 | 66 | 195 | 0.0 | 0.0 | 0.00 | 0.00 | 0.00 | 99 | 1018.8 |
| 20260906050621 | 65 | 195 | 0.0 | 0.0 | 0.00 | 0.00 | 0.00 | 99 | 1018.5 |
| 20260906050116 | 65 | 117 | 0.0 | 0.0 | 0.00 | 0.00 | 0.00 | 99 | 1018.6 |
| 20260906045614 | 65 | 117 | 0.0 | 0.0 | 0.00 | 0.00 | 0.00 | 99 | 1018.6 |
| 20260906045110 | 65 | 166 | 0.0 | 0.9 | 0.00 | 0.00 | 0.00 | 99 | 1018.5 |
| 20260906044606 | 65 | 217 | 0.0 | 0.0 | 0.00 | 0.00 | 0.00 | 99 | 1018.7 |
| 20260906044101 | 65 | 217 | 0.0 | 0.0 | 0.00 | 0.00 | 0.00 | 99 | 1018.4 |
| 20260906043557 | 65 | 202 | 0.0 | 0.9 | 0.00 | 0.00 | 0.00 | 99 | 1018.5 |
| 20260906043053 | 65 | 195 | 0.0 | 0.0 | 0.00 | 0.00 | 0.00 | 99 | 1018.5 |
| 20260906042551 | 65 | 195 | 0.0 | 0.9 | 0.00 | 0.00 | 0.00 | 99 | 1018.4 |
| 20260906042046 | 65 | 205 | 0.0 | 0.9 | 0.00 | 0.00 | 0.00 | 99 | 1018.4 |
| 20260906041543 | 65 | 217 | 0.0 | 0.9 | 0.00 | 0.00 | 0.00 | 99 | 1018.2 |
| 20260906041037 | 65 | 235 | 0.0 | 0.0 | 0.00 | 0.00 | 0.00 | 99 | 1018.4 |
| 20260906040532 | 65 | 231 | 0.0 | 0.9 | 0.00 | 0.00 | 0.00 | 99 | 1018.4 |
| 20260906040028 | 65 | 235 | 0.0 | 0.0 | 0.00 | 0.00 | 0.00 | 99 | 1018.3 |
| 20260906035523 | 65 | 235 | 0.0 | 0.0 | 0.00 | 0.00 | 0.00 | 99 | 1018.3 |
| 20260906035019 | 65 | 205 | 0.0 | 0.9 | 0.00 | 0.00 | 0.00 | 99 | 1018.1 |
| 20260906034518 | 65 | 154 | 0.0 | 0.0 | 0.00 | 0.00 | 0.00 | 99 | 1018.2 |
| 20260906034014 | 65 | 195 | 0.0 | 0.9 | 0.00 | 0.00 | 0.00 | 99 | 1018.3 |
| 20260906033508 | 65 | 129 | 0.0 | 0.9 | 0.00 | 0.00 | 0.00 | 99 | 1018.4 |
| 20260906033004 | 65 | 205 | 0.0 | 0.9 | 0.00 | 0.00 | 0.00 | 99 | 1018.5 |
| 20260906032500 | 65 | 235 | 0.0 | 0.0 | 0.00 | 0.00 | 0.00 | 99 | 1018.1 |
| 20260906031954 | 65 | 235 | 0.0 | 0.0 | 0.00 | 0.00 | 0.00 | 99 | 1018.2 |
| 20260906031450 | 66 | 212 | 0.0 | 0.9 | 0.00 | 0.00 | 0.00 | 99 | 1018.3 |
| 20260906030945 | 66 | 205 | 0.0 | 1.7 | 0.00 | 0.00 | 0.00 | 99 | 1018.1 |
| 20260906030440 | 66 | 217 | 0.0 | 0.0 | 0.00 | 0.00 | 0.00 | 99 | 1018.2 |
| 20260906025934 | 66 | 198 | 0.9 | 0.9 | 0.00 | 0.00 | 0.00 | 99 | 1018.2 |
| 20260906025428 | 66 | 255 | 0.0 | 0.9 | 0.00 | 0.00 | 0.00 | 99 | 1017.8 |
| 20260906024927 | 66 | 224 | 0.0 | 0.0 | 0.00 | 0.00 | 0.00 | 99 | 1017.7 |
| 20260906024427 | 66 | 224 | 0.0 | 0.0 | 0.00 | 0.00 | 0.00 | 99 | 1017.5 |
| 20260906023922 | 66 | 224 | 0.0 | 0.0 | 0.00 | 0.00 | 0.00 | 99 | 1017.5 |
| 20260906023418 | 67 | 224 | 0.0 | 0.9 | 0.00 | 0.00 | 0.00 | 99 | 1017.7 |
| 20260906022918 | 67 | 230 | 0.0 | 0.9 | 0.00 | 0.00 | 0.00 | 99 | 1017.5 |
| 20260906022413 | 67 | 205 | 0.0 | 0.0 | 0.00 | 0.00 | 0.00 | 99 | 1017.2 |
| 20260906021909 | 67 | 205 | 0.0 | 0.0 | 0.00 | 0.00 | 0.00 | 99 | 1017.3 |
| 20260906021408 | 67 | 205 | 0.0 | 0.0 | 0.00 | 0.00 | 0.00 | 99 | 1017.2 |
| 20260906020903 | 68 | 205 | 0.0 | 0.0 | 0.00 | 0.00 | 0.00 | 99 | 1017.2 |
| 20260906020357 | 68 | 212 | 0.0 | 0.9 | 0.00 | 0.00 | 0.00 | 99 | 1017.2 |
| 20260906015851 | 68 | 242 | 0.0 | 0.0 | 0.00 | 0.00 | 0.00 | 99 | 1016.8 |
| 20260906015350 | 68 | 242 | 0.0 | 0.0 | 0.00 | 0.00 | 0.00 | 99 | 1016.6 |
| 20260906014845 | 69 | 222 | 0.0 | 0.9 | 0.00 | 0.00 | 0.00 | 99 | 1016.5 |
| 20260906014345 | 69 | 209 | 0.0 | 0.9 | 0.00 | 0.00 | 0.00 | 98 | 1016.4 |
| 20260906013841 | 69 | 230 | 0.0 | 0.9 | 0.00 | 0.00 | 0.00 | 98 | 1016.4 |
| 20260906013337 | 69 | 195 | 0.0 | 0.9 | 0.00 | 0.00 | 0.00 | 97 | 1016.1 |
| 20260906012832 | 70 | 205 | 0.0 | 0.9 | 0.00 | 0.00 | 0.00 | 97 | 1016.0 |
| 20260906012327 | 70 | 220 | 0.0 | 1.7 | 0.00 | 0.00 | 0.00 | 96 | 1016.2 |
| 20260906011826 | 70 | 189 | 0.0 | 0.9 | 0.00 | 0.00 | 0.00 | 96 | 1016.2 |
| 20260906011321 | 70 | 205 | 0.0 | 0.0 | 0.00 | 0.00 | 0.00 | 95 | 1016.1 |
| 20260906010818 | 71 | 205 | 0.0 | 0.0 | 0.00 | 0.00 | 0.00 | 94 | 1016.2 |
| 20260906010314 | 71 | 230 | 0.0 | 0.0 | 0.00 | 0.00 | 0.00 | 94 | 1016.1 |
| 20260906005809 | 72 | 230 | 0.0 | 0.9 | 0.00 | 0.00 | 0.00 | 94 | 1016.0 |
| 20260906005307 | 72 | 117 | 0.0 | 0.0 | 0.00 | 0.00 | 0.00 | 93 | 1015.9 |
| 20260906004806 | 72 | 117 | 0.0 | 0.0 | 0.00 | 0.00 | 0.00 | 91 | 1015.8 |
| 20260906004301 | 73 | 117 | 0.0 | 0.0 | 0.00 | 0.00 | 0.00 | 91 | 1016.0 |
| 20260906003756 | 73 | 141 | 0.0 | 0.0 | 0.00 | 0.00 | 0.00 | 90 | 1015.9 |
| 20260906003252 | 73 | 141 | 0.0 | 0.9 | 0.00 | 0.00 | 0.00 | 90 | 1015.9 |
| 20260906002747 | 74 | 322 | 0.0 | 0.0 | 0.00 | 0.00 | 0.00 | 89 | 1015.8 |
| 20260906002247 | 74 | 129 | 0.0 | 0.0 | 0.00 | 0.00 | 0.00 | 88 | 1015.8 |
| 20260906001742 | 75 | 212 | 0.0 | 0.0 | 0.00 | 0.00 | 0.00 | 87 | 1015.7 |
| 20260906001237 | 75 | 246 | 0.0 | 0.9 | 0.00 | 0.00 | 0.00 | 86 | 1015.8 |
| 20260906000733 | 75 | 230 | 0.0 | 0.0 | 0.00 | 0.00 | 0.00 | 86 | 1015.9 |
| 20260906000234 | 76 | 352 | 0.0 | 0.0 | 0.00 | 0.00 | 0.00 | 85 | 1015.7 |
| 20260905235732 | 76 | 131 | 0.0 | 1.7 | 0.00 | 0.00 | 0.00 | 85 | 1015.8 |
| 20260905235227 | 76 | 195 | 0.0 | 0.0 | 0.00 | 0.00 | 0.00 | 86 | 1015.9 |
| 20260905234723 | 76 | 195 | 0.0 | 0.9 | 0.00 | 0.00 | 0.00 | 85 | 1016.0 |
| 20260905234218 | 76 | 235 | 0.0 | 0.9 | 0.00 | 0.00 | 0.00 | 85 | 1015.8 |
| 20260905233713 | 77 | 319 | 0.9 | 0.9 | 0.00 | 0.00 | 0.00 | 84 | 1016.0 |
| 20260905233212 | 77 | 322 | 0.0 | 0.0 | 0.00 | 0.00 | 0.00 | 83 | 1015.9 |
| 20260905232707 | 78 | 309 | 0.0 | 0.9 | 0.00 | 0.00 | 0.00 | 82 | 1015.8 |
| 20260905232203 | 78 | 333 | 0.0 | 1.7 | 0.00 | 0.00 | 0.00 | 81 | 1015.9 |
| 20260905231659 | 79 | 106 | 0.0 | 4.3 | 0.00 | 0.00 | 0.00 | 80 | 1015.9 |
| 20260905231154 | 79 | 7 | 0.0 | 1.7 | 0.00 | 0.00 | 0.00 | 80 | 1016.0 |
| 20260905230650 | 79 | 108 | 0.9 | 4.3 | 0.00 | 0.00 | 0.00 | 78 | 1015.9 |
| 20260905230148 | 80 | 124 | 0.0 | 1.7 | 0.00 | 0.00 | 0.00 | 79 | 1015.7 |
| 20260905225647 | 80 | 212 | 0.0 | 1.7 | 0.00 | 0.00 | 0.00 | 77 | 1016.0 |
| 20260905225142 | 81 | 297 | 0.0 | 1.7 | 0.00 | 0.00 | 0.00 | 76 | 1016.1 |
| 20260905224641 | 82 | 321 | 0.0 | 1.7 | 0.00 | 0.00 | 0.00 | 73 | 1016.0 |
| 20260905224136 | 84 | 315 | 0.0 | 1.7 | 0.00 | 0.00 | 0.00 | 72 | 1015.9 |
| 20260905223633 | 84 | 322 | 0.0 | 1.7 | 0.00 | 0.00 | 0.00 | 72 | 1016.1 |
| 20260905223129 | 82 | 262 | 1.7 | 1.7 | 0.00 | 0.00 | 0.00 | 75 | 1015.9 |
| 20260905222624 | 82 | 167 | 0.0 | 1.7 | 0.00 | 0.00 | 0.00 | 74 | 1016.0 |
| 20260905222114 | 84 | 120 | 1.7 | 2.6 | 0.00 | 0.00 | 0.00 | 71 | 1016.0 |
| 20260905221610 | 85 | 279 | 0.9 | 1.7 | 0.00 | 0.00 | 0.00 | 72 | 1016.2 |
| 20260905221106 | 85 | 230 | 0.0 | 1.7 | 0.00 | 0.00 | 0.00 | 71 | 1016.3 |
| 20260905220601 | 83 | 244 | 0.0 | 1.7 | 0.00 | 0.00 | 0.00 | 77 | 1016.3 |
| 20260905220057 | 80 | 220 | 0.9 | 0.9 | 0.00 | 0.00 | 0.00 | 82 | 1016.0 |
| 20260905215556 | 80 | 297 | 0.0 | 0.9 | 0.00 | 0.00 | 0.00 | 80 | 1016.3 |
| 20260905215052 | 81 | 304 | 0.0 | 0.9 | 0.00 | 0.00 | 0.00 | 78 | 1016.2 |
| 20260905214548 | 83 | 266 | 0.0 | 0.9 | 0.00 | 0.00 | 0.00 | 73 | 1016.4 |
| 20260905214043 | 84 | 297 | 0.0 | 0.9 | 0.00 | 0.00 | 0.00 | 70 | 1016.2 |
| 20260905213538 | 85 | 284 | 0.0 | 1.7 | 0.00 | 0.00 | 0.00 | 70 | 1016.5 |
| 20260905213034 | 84 | 157 | 0.0 | 1.7 | 0.00 | 0.00 | 0.00 | 72 | 1016.6 |
| 20260905212534 | 84 | 236 | 0.0 | 2.6 | 0.00 | 0.00 | 0.00 | 72 | 1016.5 |
| 20260905212028 | 84 | 230 | 0.0 | 1.7 | 0.00 | 0.00 | 0.00 | 71 | 1016.6 |
| 20260905211523 | 82 | 190 | 0.9 | 1.7 | 0.00 | 0.00 | 0.00 | 73 | 1016.5 |
| 20260905211019 | 81 | 223 | 0.9 | 1.7 | 0.00 | 0.00 | 0.00 | 77 | 1016.6 |
| 20260905210515 | 80 | 277 | 0.9 | 2.6 | 0.00 | 0.00 | 0.00 | 80 | 1016.5 |
| 20260905210015 | 80 | 303 | 0.9 | 1.7 | 0.00 | 0.00 | 0.00 | 80 | 1016.6 |
| 20260905205514 | 82 | 304 | 0.9 | 3.5 | 0.00 | 0.00 | 0.00 | 78 | 1017.0 |
| 20260905205013 | 83 | 265 | 0.9 | 2.6 | 0.00 | 0.00 | 0.00 | 73 | 1016.7 |
| 20260905204508 | 82 | 142 | 0.0 | 2.6 | 0.00 | 0.00 | 0.00 | 75 | 1016.6 |
| 20260905204003 | 83 | 310 | 2.6 | 2.6 | 0.00 | 0.00 | 0.00 | 72 | 1016.8 |
| 20260905203458 | 82 | 351 | 0.0 | 2.6 | 0.00 | 0.00 | 0.00 | 74 | 1016.7 |
| 20260905202953 | 82 | 259 | 0.0 | 4.3 | 0.00 | 0.00 | 0.00 | 74 | 1016.7 |
| 20260905202448 | 84 | 307 | 1.7 | 1.7 | 0.00 | 0.00 | 0.00 | 74 | 1016.8 |
| 20260905201944 | 84 | 259 | 0.9 | 2.6 | 0.00 | 0.00 | 0.00 | 76 | 1016.8 |
| 20260905201439 | 83 | 302 | 1.7 | 2.6 | 0.00 | 0.00 | 0.00 | 76 | 1017.0 |
| 20260905200933 | 83 | 187 | 1.7 | 3.5 | 0.00 | 0.00 | 0.00 | 77 | 1017.0 |
| 20260905200429 | 80 | 230 | 0.0 | 2.6 | 0.00 | 0.00 | 0.00 | 79 | 1017.3 |
| 20260905195927 | 81 | 242 | 0.0 | 2.6 | 0.00 | 0.00 | 0.00 | 79 | 1017.3 |
| 20260905195422 | 82 | 246 | 0.0 | 2.6 | 0.00 | 0.00 | 0.00 | 77 | 1017.2 |
| 20260905194918 | 84 | 295 | 0.9 | 1.7 | 0.00 | 0.00 | 0.00 | 75 | 1017.1 |
| 20260905194417 | 83 | 319 | 1.7 | 2.6 | 0.00 | 0.00 | 0.00 | 72 | 1017.2 |
| 20260905193917 | 82 | 315 | 0.0 | 2.6 | 0.00 | 0.00 | 0.00 | 75 | 1017.2 |
| 20260905193412 | 80 | 212 | 1.7 | 2.6 | 0.00 | 0.00 | 0.00 | 78 | 1017.3 |
| 20260905192907 | 79 | 217 | 0.0 | 1.7 | 0.00 | 0.00 | 0.00 | 84 | 1017.1 |
| 20260905192403 | 79 | 269 | 0.0 | 0.9 | 0.00 | 0.00 | 0.00 | 84 | 1017.3 |
| 20260905191857 | 79 | 240 | 0.0 | 0.9 | 0.00 | 0.00 | 0.00 | 83 | 1017.1 |
| 20260905191356 | 79 | 195 | 0.9 | 1.7 | 0.00 | 0.00 | 0.00 | 79 | 1017.0 |
| 20260905190855 | 80 | 258 | 0.0 | 1.7 | 0.00 | 0.00 | 0.00 | 80 | 1017.1 |
| 20260905190348 | 80 | 220 | 0.9 | 1.7 | 0.00 | 0.00 | 0.00 | 79 | 1017.0 |
| 20260905185848 | 80 | 269 | 0.0 | 1.7 | 0.00 | 0.00 | 0.00 | 80 | 1016.8 |
| 20260905185343 | 80 | 248 | 1.7 | 2.6 | 0.00 | 0.00 | 0.00 | 79 | 1017.2 |
| 20260905184842 | 79 | 214 | 0.9 | 2.6 | 0.00 | 0.00 | 0.00 | 80 | 1017.1 |
| 20260905184341 | 78 | 209 | 0.0 | 1.7 | 0.00 | 0.00 | 0.00 | 82 | 1017.5 |
| 20260905183840 | 78 | 222 | 0.9 | 1.7 | 0.00 | 0.00 | 0.00 | 82 | 1017.4 |
| 20260905183336 | 80 | 242 | 0.0 | 0.9 | 0.00 | 0.00 | 0.00 | 81 | 1017.3 |
| 20260905182835 | 79 | 241 | 0.0 | 1.7 | 0.00 | 0.00 | 0.00 | 81 | 1017.2 |
| 20260905182329 | 80 | 322 | 0.0 | 0.9 | 0.00 | 0.00 | 0.00 | 79 | 1017.3 |
| 20260905181825 | 79 | 254 | 2.6 | 3.5 | 0.00 | 0.00 | 0.00 | 78 | 1017.4 |
| 20260905181325 | 79 | 304 | 0.0 | 2.6 | 0.00 | 0.00 | 0.00 | 80 | 1017.6 |
| 20260905180824 | 81 | 171 | 0.9 | 4.3 | 0.00 | 0.00 | 0.00 | 75 | 1017.4 |
| 20260905180319 | 81 | 250 | 1.7 | 2.6 | 0.00 | 0.00 | 0.00 | 76 | 1017.2 |
| 20260905175814 | 81 | 145 | 2.6 | 3.5 | 0.00 | 0.00 | 0.00 | 79 | 1017.4 |
| 20260905175308 | 79 | 124 | 0.0 | 2.6 | 0.00 | 0.00 | 0.00 | 84 | 1017.6 |
| 20260905174804 | 80 | 191 | 1.7 | 2.6 | 0.00 | 0.00 | 0.00 | 79 | 1017.5 |
| 20260905174300 | 80 | 246 | 0.0 | 1.7 | 0.00 | 0.00 | 0.00 | 83 | 1017.6 |
| 20260905173755 | 78 | 150 | 0.0 | 1.7 | 0.00 | 0.00 | 0.00 | 85 | 1017.6 |